Temp
65 66 67 66 66 66 69 70 72 73 73 73 72 72 72 73 74 73 73 73 74 73 73 73 73 73 74 71 71 71 72 71 71 71 71 70 69 69 69 70 68 67
65 66 66 66 65 65 66 69 72 73 72 73 73 72 73 73 73 73 73 73 74 73 73 73 72 73 73 72 72 71 70 70 70 74 70 70 69 69 68 69 68 69
66 66 66 65 64 65 67 70 73 73 72 73 73 73 73 73 72 73 73 72 73 72 73 73 73 73 73 73 72 71 70 70 71 72 71 71 70 69 69 69 68 68
66 67 66 66 66 66 68 70 72 73 73 72 72 73 74 74 73 72 73 74 72 72 72 73 73 74 74 74 72 71 71 69 70 71 71 70 70 70 69 69 69 69
67 67 68 68 68 69 71 72 73 73 73 72 73 73 72 72 72 72 71 72 72 72 72 72 73 73 73 72 72 71 70 68 70 70 70 69 70 70 69 69 68 68
68 69 70 71 71 72 72 73 74 74 73 72 72 73 72 73 73 72 72 72 72 72 72 72 73 73 73 72 71 70 71 70 70 70 70 70 69 70 72 71 69 68
66 66 66 70 72 73 72 72 72 73 73 72 73 71 72 72 73 73 73 73 73 73 73 72 71 72 71 71 71 70 70 71 72 72 72 70 70 70 72 71 71 70
66 66 66 68 70 72 72 73 73 72 72 73 71 72 73 74 74 73 73 73 73 74 72 73 72 72 72 72 71 70 70 73 72 71 70 71 69 69 69 71 70 70
67 67 67 67 68 69 71 72 72 72 73 72 72 72 73 73 73 73 74 74 74 72 73 73 73 72 71 72 70 70 70 70 71 70 70 69 69 69 72 71 69 70
69 69 70 70 70 71 71 72 72 72 73 72 73 72 73 72 73 74 74 73 73 73 74 73 73 71 72 73 73 72 71 71 72 71 70 70 70 70 73 71 69 68
70 71 70 70 70 71 71 72 72 72 72 73 72 71 73 73 73 74 73 74 73 74 74 72 72 73 73 73 72 72 72 71 72 71 71 71 71 70 72 70 69 68
70 70 70 70 71 71 71 71 72 72 72 72 74 73 72 73 72 73 75 74 74 75 74 73 73 72 73 73 73 73 72 70 72 71 72 72 70 71 72 71 69 68
67 69 70 70 70 70 70 69 72 71 71 72 73 73 72 71 72 72 73 73 74 74 74 73 73 74 72 72 74 73 73 72 70 70 71 71 70 71 72 71 71 67
65 68 69 70 70 71 71 70 71 71 71 71 72 71 71 73 72 72 72 73 73 74 73 70 65 62 60 62 65 70 71 71 70 69 71 70 70 71 70 70 69 66
67 68 69 68 68 67 67 66 67 70 71 71 71 71 72 73 72 73 72 73 73 71 67 65 61 55 51 49 56 61 66 71 71 71 69 69 71 71 70 71 69 67
65 67 67 65 65 65 64 64 63 67 69 70 71 71 71 71 71 71 72 72 70 66 65 61 57 53 45 42 44 51 60 67 70 69 70 70 69 69 69 71 67 66
63 66 66 64 63 63 63 63 63 61 66 70 70 70 70 70 70 70 69 68 66 64 60 57 53 49 42 40 40 42 55 61 65 67 70 69 68 69 67 69 67 66
62 63 64 64 64 63 62 62 62 61 65 68 68 68 68 66 64 64 64 63 62 60 57 55 51 43 40 41 41 41 43 55 63 67 68 67 69 69 70 69 67 66
60 60 59 59 60 61 61 61 62 64 64 65 65 66 65 64 63 62 61 61 59 57 55 53 51 42 41 41 41 41 39 48 65 66 68 67 69 70 68 68 67 67
58 58 58 58 58 58 58 59 60 62 63 64 64 64 63 62 61 60 60 59 58 56 54 51 48 42 40 41 41 40 40 44 63 67 67 69 68 68 68 67 67 66
56 56 56 56 56 55 55 55 57 57 58 58 60 60 60 59 59 58 57 57 57 56 54 51 46 40 41 41 41 41 42 47 63 67 67 67 68 67 68 68 69 68
54 54 54 54 53 53 53 53 53 54 54 55 56 56 57 58 57 57 56 56 56 55 53 52 49 40 40 41 41 41 46 61 65 66 66 66 66 67 66 66 67 67
51 51 51 52 52 51 51 51 51 52 52 53 53 53 52 53 53 54 56 56 56 55 53 51 49 42 40 41 41 40 48 60 64 66 66 66 66 66 67 61 58 62
49 50 50 50 50 51 51 50 51 51 51 52 51 50 50 51 52 52 53 54 55 55 54 51 49 44 40 41 41 40 46 57 62 64 64 65 66 66 62 54 50 49
48 49 49 49 49 50 50 50 50 50 51 52 52 51 51 52 52 52 52 53 54 54 53 51 48 46 41 40 41 41 46 55 61 62 60 59 63 64 62 53 50 44
47 48 48 49 49 49 49 49 50 50 51 51 52 52 52 55 55 54 53 53 54 54 52 50 47 46 43 41 41 42 43 53 56 54 54 55 58 59 61 55 52 49
MSLP
1015.10 1015.27 1015.27 1015.07 1014.78 1014.74 1014.95 1015.15 1015.18 1015.34 1015.42 1015.51 1015.83 1015.91 1015.91 1015.86 1015.91 1016.07 1016.18 1016.30 1016.34 1016.51 1016.62 1016.74 1016.83 1017.03 1017.10 1017.34 1017.42 1017.59 1017.71 1017.86 1017.98 1018.10 1018.30 1018.51 1018.71 1018.86 1019.15 1019.34 1019.51 1019.71
1015.34 1015.18 1015.07 1014.98 1014.78 1014.78 1014.98 1015.51 1015.30 1015.15 1015.30 1015.39 1015.51 1015.66 1015.66 1015.83 1015.95 1015.98 1016.18 1016.30 1016.34 1016.51 1016.59 1016.74 1016.91 1017.03 1017.15 1017.30 1017.51 1017.74 1017.86 1017.91 1018.10 1017.98 1018.30 1018.54 1018.66 1018.86 1019.07 1019.15 1019.47 1019.54
1014.74 1014.91 1014.86 1014.78 1014.86 1014.71 1014.78 1015.10 1014.95 1014.98 1015.15 1015.27 1015.34 1015.54 1015.74 1015.78 1015.95 1015.98 1016.10 1016.27 1016.42 1016.54 1016.66 1016.78 1016.91 1016.98 1017.10 1017.18 1017.42 1017.66 1017.86 1018.07 1018.18 1018.07 1018.22 1018.47 1018.54 1018.86 1018.98 1019.07 1019.39 1019.54
1013.71 1014.22 1014.30 1014.51 1014.47 1014.47 1014.98 1015.15 1014.86 1014.91 1015.03 1015.34 1015.51 1015.59 1015.71 1015.83 1015.91 1016.07 1016.15 1016.18 1016.39 1016.62 1016.74 1016.83 1016.95 1016.98 1017.03 1017.10 1017.39 1017.66 1017.83 1018.10 1018.15 1018.15 1018.30 1018.39 1018.51 1018.66 1018.91 1019.07 1019.27 1019.39
1012.42 1013.47 1013.91 1014.18 1014.15 1014.30 1014.86 1014.86 1014.86 1014.91 1015.15 1015.27 1015.34 1015.54 1015.74 1015.91 1016.03 1016.15 1016.22 1016.30 1016.42 1016.71 1016.78 1016.91 1016.95 1017.03 1017.03 1017.10 1017.34 1017.66 1017.91 1018.10 1018.10 1018.22 1018.39 1018.54 1018.54 1018.71 1018.83 1019.03 1019.30 1019.47
1011.95 1012.51 1013.27 1013.66 1013.86 1014.18 1014.34 1014.51 1014.66 1014.86 1015.10 1015.27 1015.42 1015.47 1015.71 1015.83 1015.95 1016.10 1016.22 1016.39 1016.54 1016.71 1016.86 1016.95 1017.03 1017.07 1017.10 1017.18 1017.34 1017.54 1017.78 1018.07 1018.15 1018.22 1018.39 1018.59 1018.71 1018.62 1018.78 1018.91 1019.22 1019.54
1011.98 1012.27 1012.83 1013.22 1013.59 1013.83 1014.15 1014.34 1014.51 1014.74 1014.98 1015.15 1015.30 1015.54 1015.62 1015.78 1015.86 1015.98 1016.10 1016.27 1016.51 1016.62 1016.86 1016.95 1017.07 1017.15 1017.15 1017.18 1017.42 1017.62 1017.78 1017.86 1017.86 1018.03 1018.18 1018.34 1018.42 1018.54 1018.59 1018.78 1018.95 1019.27
1012.22 1012.10 1012.39 1013.10 1013.59 1013.91 1014.18 1014.27 1014.51 1014.74 1014.91 1015.10 1015.39 1015.51 1015.54 1015.71 1015.78 1015.91 1016.07 1016.22 1016.47 1016.59 1016.74 1016.78 1016.98 1017.10 1017.18 1017.27 1017.47 1017.71 1017.83 1017.78 1017.86 1017.95 1018.03 1018.15 1018.30 1018.54 1018.54 1018.59 1018.78 1019.07
1012.42 1012.27 1012.22 1012.98 1013.78 1014.15 1014.07 1014.22 1014.51 1014.71 1014.83 1015.10 1015.30 1015.47 1015.42 1015.54 1015.71 1015.95 1016.10 1016.22 1016.42 1016.59 1016.66 1016.74 1016.98 1017.10 1017.18 1017.27 1017.42 1017.66 1017.83 1017.78 1017.74 1017.83 1017.91 1018.22 1018.34 1018.47 1018.42 1018.54 1018.86 1019.07
1012.42 1012.27 1012.30 1012.74 1013.18 1013.54 1013.86 1014.15 1014.34 1014.66 1014.83 1015.07 1015.22 1015.39 1015.51 1015.51 1015.66 1015.95 1016.10 1016.22 1016.47 1016.51 1016.59 1016.83 1016.98 1017.18 1017.27 1017.22 1017.34 1017.54 1017.66 1017.71 1017.71 1017.66 1017.78 1018.03 1018.18 1018.27 1018.27 1018.51 1018.78 1019.15
1012.27 1012.15 1012.27 1012.51 1012.78 1013.18 1013.66 1013.98 1014.27 1014.59 1014.83 1015.03 1015.22 1015.39 1015.42 1015.51 1015.78 1015.91 1016.18 1016.30 1016.51 1016.51 1016.62 1016.91 1017.07 1017.22 1017.30 1017.30 1017.30 1017.39 1017.47 1017.62 1017.71 1017.74 1017.86 1017.95 1017.98 1018.15 1018.22 1018.42 1018.74 1019.07
1012.07 1012.18 1012.39 1012.62 1012.78 1013.15 1013.62 1013.98 1014.27 1014.59 1014.83 1015.03 1015.22 1015.39 1015.47 1015.59 1015.91 1016.03 1016.18 1016.39 1016.54 1016.42 1016.62 1016.91 1017.03 1017.18 1017.27 1017.27 1017.30 1017.39 1017.47 1017.54 1017.62 1017.71 1017.78 1017.91 1018.07 1018.15 1018.18 1018.34 1018.59 1019.15
1012.34 1012.39 1012.51 1012.83 1013.03 1013.34 1013.74 1014.22 1014.47 1014.62 1014.86 1015.10 1015.15 1015.34 1015.59 1015.83 1015.95 1016.10 1016.18 1016.30 1016.47 1016.42 1016.74 1016.91 1016.98 1017.15 1017.27 1017.39 1017.39 1017.42 1017.54 1017.66 1017.74 1017.83 1017.95 1017.95 1018.07 1018.15 1018.15 1018.27 1018.51 1019.27
1012.78 1012.59 1012.71 1012.98 1013.22 1013.47 1013.83 1014.15 1014.54 1014.78 1014.98 1015.10 1015.18 1015.42 1015.66 1015.78 1016.03 1016.18 1016.27 1016.27 1016.42 1016.51 1016.74 1017.18 1017.71 1018.07 1018.30 1018.22 1018.03 1017.78 1017.59 1017.78 1017.86 1018.03 1018.07 1018.10 1018.15 1018.18 1018.22 1018.39 1018.83 1019.18
1012.54 1012.66 1012.83 1013.22 1013.47 1013.78 1014.15 1014.54 1014.78 1014.95 1015.07 1015.22 1015.39 1015.51 1015.59 1015.71 1015.91 1016.10 1016.39 1016.42 1016.51 1016.98 1017.51 1017.83 1018.34 1019.07 1019.62 1019.54 1018.71 1018.39 1018.18 1017.91 1018.03 1018.10 1018.22 1018.30 1018.42 1018.34 1018.34 1018.47 1018.95 1019.15
1012.74 1012.83 1013.18 1013.47 1013.78 1014.22 1014.47 1014.66 1015.03 1015.27 1015.30 1015.34 1015.47 1015.59 1015.71 1015.78 1015.98 1016.22 1016.39 1016.54 1017.15 1017.74 1017.98 1018.47 1019.10 1019.66 1020.15 1020.10 1019.83 1019.22 1018.62 1018.42 1018.15 1018.22 1018.27 1018.30 1018.47 1018.54 1018.54 1018.62 1019.10 1019.15
1013.42 1013.34 1013.51 1013.86 1014.18 1014.54 1014.71 1015.07 1015.62 1016.03 1015.91 1015.51 1015.59 1015.78 1015.95 1016.07 1016.18 1016.54 1016.83 1017.10 1017.66 1018.15 1018.66 1019.18 1019.78 1020.22 1020.15 1019.83 1019.39 1019.10 1018.86 1018.74 1018.66 1018.47 1018.30 1018.39 1018.42 1018.59 1018.78 1018.71 1019.22 1019.34
1013.95 1013.95 1013.86 1014.22 1014.47 1014.74 1014.83 1015.34 1016.03 1016.86 1016.39 1015.74 1015.95 1016.18 1016.51 1016.83 1017.15 1017.39 1017.62 1017.91 1018.18 1018.66 1019.18 1019.74 1020.22 1020.47 1019.83 1019.47 1019.30 1019.15 1019.22 1019.07 1018.98 1018.66 1018.47 1018.59 1018.54 1018.62 1018.62 1018.66 1019.18 1019.39
1014.34 1014.39 1014.47 1014.74 1014.78 1014.91 1015.07 1015.59 1016.42 1016.91 1016.51 1016.42 1016.62 1016.78 1017.03 1017.30 1017.71 1017.86 1018.15 1018.39 1018.74 1019.27 1019.83 1020.18 1020.51 1020.66 1020.03 1019.62 1019.54 1019.39 1019.34 1019.15 1019.03 1018.86 1018.71 1018.66 1018.59 1018.66 1018.91 1018.98 1018.98 1019.27
1014.91 1014.91 1015.03 1015.07 1015.07 1015.34 1015.74 1016.51 1016.78 1016.74 1016.74 1016.78 1016.98 1017.22 1017.51 1017.78 1018.03 1018.30 1018.54 1018.86 1019.27 1019.71 1020.30 1020.66 1020.95 1020.86 1020.47 1020.03 1019.83 1019.71 1019.54 1019.42 1019.15 1018.91 1018.62 1018.59 1018.62 1018.78 1018.86 1018.98 1019.15 1019.27
1015.62 1015.59 1015.83 1016.07 1016.18 1016.51 1016.95 1017.30 1017.18 1017.27 1017.30 1017.59 1017.59 1017.83 1018.03 1018.27 1018.51 1018.74 1019.07 1019.27 1019.62 1020.07 1020.51 1020.98 1021.54 1021.39 1020.83 1020.51 1020.18 1019.95 1019.74 1019.47 1019.15 1018.86 1018.86 1018.83 1018.78 1018.91 1018.98 1019.10 1019.15 1019.30
1016.59 1016.59 1016.78 1016.98 1017.27 1017.30 1017.54 1017.91 1018.07 1017.83 1017.95 1018.07 1018.30 1018.47 1018.54 1018.66 1018.95 1019.10 1019.47 1019.71 1019.91 1020.18 1020.62 1021.18 1021.66 1021.62 1021.27 1020.91 1020.59 1020.18 1019.78 1019.39 1019.22 1019.07 1019.15 1019.18 1019.22 1019.22 1019.27 1019.27 1019.30 1019.47
1017.74 1017.62 1017.74 1017.83 1017.86 1018.15 1018.39 1018.62 1018.71 1018.59 1018.59 1018.59 1018.86 1019.22 1019.34 1019.54 1019.66 1019.71 1019.78 1019.95 1020.15 1020.54 1021.07 1021.59 1021.86 1021.98 1021.66 1021.34 1020.95 1020.66 1020.03 1019.86 1019.54 1019.30 1019.22 1019.30 1019.39 1019.47 1019.54 1020.03 1020.22 1020.18
1018.59 1018.51 1018.59 1018.59 1018.39 1018.54 1018.78 1018.91 1019.10 1019.30 1019.34 1019.22 1019.42 1019.66 1019.95 1020.18 1020.22 1020.30 1020.54 1020.66 1020.71 1020.95 1021.27 1021.74 1022.18 1022.34 1022.03 1021.66 1021.39 1021.10 1020.62 1020.39 1019.91 1019.59 1019.34 1019.39 1019.42 1019.47 1020.07 1020.98 1021.71 1021.47
1019.22 1019.15 1019.18 1019.22 1019.27 1019.39 1019.30 1019.27 1019.30 1019.47 1019.54 1019.39 1019.74 1020.07 1020.34 1020.47 1020.59 1020.78 1021.03 1021.03 1021.07 1021.27 1021.62 1022.03 1022.39 1022.47 1022.30 1022.03 1021.74 1021.51 1021.03 1020.74 1020.30 1020.22 1020.39 1020.39 1020.15 1020.10 1020.62 1021.59 1022.10 1022.51
1019.86 1019.78 1019.74 1019.74 1019.78 1019.83 1019.83 1019.83 1019.91 1020.03 1020.07 1019.95 1020.07 1020.10 1020.27 1020.42 1020.62 1020.91 1021.10 1021.34 1021.30 1021.47 1021.83 1022.18 1022.42 1022.59 1022.59 1022.30 1022.10 1021.86 1021.62 1021.30 1021.39 1021.54 1021.66 1021.47 1021.07 1020.78 1020.83 1021.74 1022.18 1022.59
Wind_Speed
1 2 3 4 4 3 2 0 3 5 4 5 5 5 4 4 5 3 3 3 3 2 3 3 3 2 4 4 2 1 0 3 2 3 3 2 2 3 2 4 4 2
7 7 4 3 4 2 3 4 5 4 4 4 5 5 4 5 4 3 4 3 2 3 3 3 3 3 2 4 3 2 1 1 3 3 3 3 3 4 2 2 5 3
12 8 8 7 7 5 4 5 4 4 5 4 4 4 5 5 4 4 4 3 3 3 2 2 2 2 2 3 4 2 3 1 1 1 3 3 3 3 3 2 3 4
13 11 9 8 6 5 5 6 4 3 4 5 4 5 4 4 3 4 3 3 4 4 3 1 2 0 2 3 4 2 3 2 1 0 1 2 3 3 3 2 3 4
16 12 9 7 7 8 8 7 5 4 4 4 5 5 5 3 3 4 3 3 4 3 2 2 1 2 1 3 3 3 4 2 2 2 2 1 3 3 3 3 3 4
13 13 10 9 9 9 7 7 6 6 5 5 5 5 4 3 4 4 4 4 3 4 2 3 2 2 1 2 2 2 4 4 3 2 2 4 1 2 3 2 3 3
13 12 9 8 7 8 7 6 6 6 5 5 5 5 4 4 3 4 3 4 4 3 4 3 3 2 1 3 2 3 2 1 3 2 3 4 3 3 4 4 4 6
10 10 10 7 5 8 6 7 7 6 5 5 4 5 5 4 5 3 3 3 4 4 3 4 3 2 2 1 3 3 2 2 2 3 3 5 3 3 3 2 2 2
9 10 12 15 10 7 7 7 7 5 5 5 5 5 3 3 4 3 4 3 4 3 4 4 2 2 1 2 3 3 3 3 3 4 3 5 3 3 3 4 2 1
11 11 14 14 13 10 9 8 7 7 5 5 4 4 4 3 4 3 3 2 4 4 4 5 2 3 1 2 4 2 3 2 1 2 4 3 3 3 3 5 3 3
11 11 12 13 12 10 10 9 8 7 6 6 4 4 4 3 6 2 3 2 3 2 4 3 3 2 1 1 2 1 2 2 1 2 2 3 2 4 5 4 4 3
10 9 11 11 11 11 10 8 7 7 5 6 5 4 4 4 3 3 3 2 2 2 5 3 3 2 2 1 3 1 1 2 2 1 1 1 6 2 1 5 3 7
8 8 9 9 9 9 9 8 6 6 5 3 5 4 5 4 3 3 1 3 3 2 5 4 3 1 1 2 1 2 1 1 2 3 1 1 4 3 3 2 4 10
9 7 8 8 8 10 9 8 7 6 5 3 3 5 4 4 3 4 2 1 3 3 4 8 10 9 8 7 8 5 2 1 3 3 1 4 2 2 5 3 7 7
7 7 8 7 7 7 8 8 5 4 3 3 4 4 3 3 3 4 3 2 5 9 10 8 8 7 5 6 6 7 8 1 1 2 2 2 1 2 4 1 7 5
6 7 8 9 10 9 7 7 4 1 2 3 5 3 3 4 3 4 2 4 9 10 9 8 6 5 7 8 6 4 5 6 1 1 2 0 4 2 3 1 7 4
5 5 8 7 9 9 8 7 4 6 4 4 4 3 4 4 4 6 7 8 10 9 8 7 5 5 10 6 6 9 7 5 6 3 0 2 2 2 3 3 8 5
4 5 7 7 9 9 8 8 5 3 4 4 4 5 8 10 10 9 9 8 9 9 9 7 5 9 11 12 10 10 7 5 4 3 2 3 1 1 1 4 6 6
8 8 9 10 10 9 7 6 4 3 7 8 8 8 9 9 9 10 9 9 9 10 9 7 5 12 13 13 12 11 11 7 3 6 0 2 0 1 6 5 4 7
9 10 10 11 12 12 11 8 5 7 6 7 7 8 9 9 9 10 9 9 9 9 8 7 7 11 13 14 13 13 11 7 4 6 1 2 4 4 4 3 5 5
9 10 10 11 11 11 10 8 9 10 10 8 8 8 8 8 8 8 8 9 9 8 8 7 6 12 13 14 13 13 13 6 5 3 5 3 5 4 2 3 2 4
10 12 11 11 11 11 11 9 8 9 10 8 8 8 7 8 7 7 8 9 8 8 8 8 7 14 13 14 14 15 13 5 5 1 2 3 4 5 4 4 4 3
11 11 11 10 10 10 10 9 8 9 8 7 9 8 8 9 8 8 7 7 7 8 8 6 6 12 14 14 15 16 11 6 5 4 1 1 1 1 2 9 8 7
11 11 11 9 10 11 9 8 8 6 6 6 8 8 8 7 6 8 8 7 8 8 6 6 6 10 14 14 15 16 11 7 6 5 2 1 0 1 7 7 11 18
11 11 11 10 10 9 8 8 8 8 6 7 8 7 7 4 5 7 7 6 6 7 10 8 5 8 13 14 15 15 13 7 7 7 8 9 8 7 8 7 7 11
10 11 11 10 10 9 8 8 7 6 6 6 5 4 4 5 5 6 6 4 4 7 7 7 7 6 10 14 14 16 16 9 8 8 8 8 7 7 4 7 7 7
Wind_Direction
232 260 218 207 184 140 8 95 180 168 163 137 153 153 158 137 131 143 137 156 159 139 131 131 117 117 118 115 99 27 55 141 111 129 143 143 139 125 144 147 125 125
196 206 202 188 192 127 109 219 205 168 147 141 144 148 140 129 144 156 132 146 130 128 128 110 125 134 137 137 141 139 70 90 157 161 143 155 136 136 162 138 142 159
180 179 183 172 180 167 179 242 168 156 140 144 130 127 128 130 155 132 143 145 161 118 100 119 125 146 163 156 141 146 136 151 143 156 150 173 145 147 159 133 118 163
167 174 170 179 175 155 181 219 158 136 126 124 126 122 121 128 128 125 148 150 118 110 127 145 122 170 191 131 121 135 116 103 198 152 137 136 141 152 148 149 150 154
159 160 162 181 181 169 191 178 150 138 132 122 120 117 119 128 137 136 132 118 107 128 139 138 156 168 317 98 125 132 119 137 166 173 170 126 156 159 153 165 172 176
150 150 161 177 168 170 158 154 147 133 125 121 119 125 126 141 147 145 150 140 140 140 160 141 181 111 203 145 123 140 133 161 163 161 205 138 91 179 140 179 166 140
154 148 149 160 153 152 153 154 141 129 130 131 129 130 145 152 155 144 155 144 154 149 152 177 125 144 207 93 147 110 101 229 157 160 191 144 174 154 161 178 188 153
160 149 137 131 147 157 160 140 129 134 141 139 140 131 157 162 142 148 137 156 166 141 175 156 141 143 136 142 169 114 157 200 138 183 233 149 165 158 175 136 129 156
162 156 144 150 171 170 152 137 134 141 139 136 129 146 156 158 128 142 140 199 132 172 184 121 147 118 125 223 115 152 159 206 179 209 195 112 146 176 192 150 125 152
166 162 157 159 161 157 147 144 143 139 142 139 138 150 150 146 125 148 139 203 140 207 137 105 140 105 182 225 129 165 202 147 235 69 91 133 170 197 201 131 151 113
167 164 156 156 150 147 144 146 139 137 142 136 140 158 152 139 120 149 138 197 140 204 114 120 110 153 167 260 121 194 136 161 178 140 165 173 184 73 46 108 114 108
163 157 151 149 144 141 140 137 135 138 138 138 160 153 120 105 138 154 154 152 166 213 118 136 135 183 179 218 115 107 230 96 208 132 120 91 62 349 65 65 126 92
161 154 144 141 140 131 128 134 141 127 123 143 153 137 126 121 166 125 158 150 185 143 126 163 147 95 38 31 149 151 83 130 28 78 259 84 132 204 116 79 83 102
156 156 135 131 131 134 136 136 139 131 142 174 126 125 138 146 154 134 141 177 167 123 83 56 53 46 30 24 10 354 96 94 77 346 358 54 21 14 83 81 103 121
132 126 133 115 100 96 91 76 81 109 128 155 122 124 138 122 131 113 166 181 86 64 68 64 56 44 33 12 357 7 357 31 156 157 314 109 57 314 76 53 93 114
103 112 111 97 94 89 95 96 58 31 194 138 118 129 142 122 122 132 113 90 83 70 64 60 53 53 18 16 32 343 2 350 1 39 263 89 173 208 107 79 105 104
124 115 110 94 94 104 107 93 70 355 291 125 117 110 102 99 82 62 49 55 72 74 63 56 47 22 360 15 22 28 29 4 358 336 27 300 46 332 149 134 119 111
77 44 82 105 118 119 113 96 86 217 253 105 107 97 68 66 69 70 69 66 67 65 60 49 43 6 8 16 17 23 35 11 345 320 37 343 82 325 41 115 118 128
76 78 74 76 76 77 85 98 124 130 72 65 61 74 81 72 71 72 71 70 68 66 59 43 34 7 8 15 16 15 12 2 355 324 256 252 324 78 45 9 119 138
60 65 67 73 77 75 74 79 93 76 64 68 76 74 79 82 75 75 78 75 73 71 60 43 28 3 11 15 15 7 1 356 308 307 333 11 67 40 55 48 44 44
46 49 58 64 68 74 68 69 78 78 64 49 60 66 71 77 79 78 77 81 80 75 69 49 27 9 18 18 13 7 352 336 295 344 3 355 41 48 47 36 49 63
41 59 55 66 66 70 70 59 52 67 74 67 62 59 62 72 71 73 74 80 80 79 69 49 28 17 18 19 15 6 356 346 325 320 9 22 24 21 5 11 23 30
41 54 60 63 69 66 69 63 55 52 61 66 72 59 57 54 58 53 55 70 79 82 80 63 36 17 19 21 18 12 6 354 339 343 311 54 114 129 38 46 29 29
41 47 53 53 59 64 62 68 71 62 60 67 78 76 65 55 55 60 56 56 62 67 72 72 51 24 24 24 21 14 5 0 336 333 355 82 46 91 81 70 48 42
39 44 47 47 51 49 52 59 56 57 49 61 73 75 78 66 70 73 68 59 64 83 84 74 58 32 28 30 27 21 13 353 359 14 28 10 11 24 72 76 64 54
32 38 38 40 46 46 43 46 51 52 50 63 61 73 83 96 94 89 94 103 84 72 80 84 69 39 29 37 35 30 21 22 34 30 19 3 5 355 49 88 70 68